Location: Kerentrech
(47.7567°N, 3.3595°W)
Time: 04:55:08
(UTC+00:00)

Cosmos 2369 Rocket - Pass Details

Date: 17 February 2020
Orbit: 827 x 854 km, 71.0° (Epoch: 30 March)

Event Time Altitude Azimuth Distance (km) Brightness Sun altitude
Exits shadow 04:49:20 - 338° (NNW) 2,749 4.7 -25.4°
Reaches altitude 10° 04:50:02 10° 340° (NNW) 2,493 4.5 -25.3°
Maximum altitude 04:55:39 53° 57° (ENE) 1,041 2.9 -24.4°
Drops below altitude 10° 05:01:13 10° 134° (SE) 2,480 5.1 -23.4°
Sets 05:03:44 0° 139° (SE) 3,411 5.8 -23.0°
